Weather History for Hyderabad, India

Change the Weather History Date:

Monday, October 14, 2013

  Actual Average Record
Temperature  
Mean Temperature 82 °F -  
Max Temperature 90 °F 83 °F 96 °F (2014)
Min Temperature 73 °F 67 °F 63 °F (2012)
Cooling Degree Days 16    
Growing Degree Days 32 (Base 50)    
Moisture  
Dew Point 69 °F    
Average Humidity 61    
Maximum Humidity 79    
Minimum Humidity 45    
Precipitation  
Precipitation 0.00 in 0.09 in - ()
Sea Level Pressure  
Sea Level Pressure 29.81 in    
Wind  
Wind Speed 5 mph ()    
Max Wind Speed 14 mph    
Max Gust Speed -    
Visibility 3.1 miles    
Events      
Averages and records for this station are not official NWS values.
T = Trace of Precipitation, MM = Missing Value Source: Averaged Metar Reports

Daily Weather History Graph

Daily Weather History Graph

Search for Another Location

Airport:

Trip Planner

Search our weather history database for the weather conditions in past years. The results will help you decide how hot, cold, wet, or windy it might be!

Date:

Astronomy

Oct. 14, 2013 Rise Set
Actual Time 6:08 AM IST 5:55 PM IST
Civil Twilight 5:47 AM IST 6:16 PM IST
Nautical Twilight 5:21 AM IST 6:42 PM IST
Astronomical Twilight 4:56 AM IST 7:07 PM IST
Moon 2:30 PM IST (10/14) 1:36 AM IST (10/14)
Length of Visible Light 12h 29m
Length of Day
11h 46m
Waxing Gibbous, 75% of the Moon is Illuminated
Oct 14
Waxing Gibbous
Oct 19
Full
Oct 27
Last Quarter
Nov 3
New
Nov 10
First Quarter

Hourly Weather History & Observations

Time (IST) Temp. Heat Index Dew Point Humidity Pressure Visibility Wind Dir Wind Speed Gust Speed Precip Events Conditions
2:30 AM 75 °F - 69 °F 75% 29.69 in 2 mi Calm Calm - -   Haze
5:30 AM 74 °F - 69 °F 79% 29.71 in 2 mi Calm Calm - -   Haze
6:10 AM 73.4 °F - 66.2 °F 78% 29.86 in 2.5 mi WNW 5.8 mph - N/A   Haze
7:10 AM 75.2 °F - 68.0 °F 78% 29.89 in 2.5 mi WNW 4.6 mph - N/A   Haze
8:10 AM - - - N/A% 29.92 in 2.5 mi WNW 5.8 mph - N/A   Haze
9:10 AM 82.4 °F 86.3 °F 69.8 °F 66% 29.92 in 3.1 mi WNW 11.5 mph - N/A   Haze
11:10 AM 87.8 °F 93.8 °F 71.6 °F 58% 29.89 in 3.7 mi WNW 9.2 mph - N/A   Scattered Clouds
11:30 AM 87 °F - 71 °F 51% 29.74 in 6 mi NW 3.5 mph - -   Mostly Cloudy
12:10 PM 87.8 °F 92.6 °F 69.8 °F 55% 29.86 in 3.7 mi WNW 11.5 mph - N/A   Scattered Clouds
1:10 PM 91.4 °F 95.4 °F 68.0 °F 46% 29.83 in 3.7 mi WNW 13.8 mph - N/A   Scattered Clouds
2:30 PM 88 °F - 70 °F 45% 29.67 in 6 mi NW 3.5 mph - -   Partly Cloudy
2:40 PM 91.4 °F 96.8 °F 69.8 °F 49% 29.80 in 3.7 mi WNW 11.5 mph - N/A   Scattered Clouds
3:10 PM 91.4 °F 96.8 °F 69.8 °F 49% 29.80 in 3.7 mi West 11.5 mph - N/A   Scattered Clouds
4:10 PM 89.6 °F 93.4 °F 68.0 °F 49% 29.77 in 3.7 mi WNW 11.5 mph - N/A   Scattered Clouds
5:10 PM 87.8 °F 92.6 °F 69.8 °F 55% 29.83 in 3.7 mi NW 10.4 mph - N/A   Scattered Clouds
5:30 PM 86 °F - 70 °F 51% 29.68 in 2 mi Calm Calm - -   Haze
6:10 PM 84.2 °F 88.4 °F 69.8 °F 62% 29.83 in 2.5 mi NW 6.9 mph - N/A   Haze
7:10 PM 82.4 °F 85.4 °F 68.0 °F 62% 29.86 in 2.5 mi WNW 6.9 mph - N/A   Haze
8:10 PM 80.6 °F 83.2 °F 68.0 °F 65% 29.89 in 2.5 mi NW 6.9 mph - N/A   Haze
8:30 PM 81 °F - 70 °F 62% 29.77 in 2 mi Calm Calm - -   Haze
9:10 PM 80.6 °F 83.9 °F 69.8 °F 70% 29.92 in 2.5 mi NW 9.2 mph - N/A   Haze
11:30 PM 78 °F - 69 °F 67% 29.80 in 2 mi Calm Calm - -   Haze